Tracking 17784 objects as of 25-July-2016
HD Live streaming from Space Station
objects crossing your sky now

GLOBALSTAR M006

Track GLOBALSTAR M006 now!
10-day predictions
GLOBALSTAR M006 is classified as:


NORAD ID: 25307
Int'l Code: 1998-023B
Perigee: 1,879.3 km
Apogee: 1,881.3 km
Inclination: 52.0 °
Period: 124.3 minutes
Semi major axis: 8251 km
RCS: 2.7065 m2 (large)
Launch date: April 24, 1998
Source: Globalstar (GLOB)
Launch site: AIR FORCE EASTERN TEST RANGE (AFETR)
Your satellite tracking list
Your tracking list is empty





NASA's NSSDC Master Catalog

Two Line Element Set (TLE):
1 25307U 98023B   16206.57037535 -.00000072  00000-0  70011-4 0  9992
2 25307  51.9951  30.3457 0001213  57.8479 341.5269 11.58294738840424
Source of the keplerian elements: AFSPC

N2YO: 607